Imperial, NE

3:45 PM MDT on September 26, 2016 (GMT -0600)
Imperial Municipal

Weather History for KIML - March, 2013

Change the Weather History Date:

Thursday, March 28, 2013

  Actual Average Record
Temperature  
Mean Temperature 47 °F 43 °F  
Max Temperature 64 °F 58 °F 88 °F (1895)
Min Temperature 30 °F 29 °F -4 °F (1931)
Degree Days  
Heating Degree Days 18 22  
Month to date heating degree days 779 715  
Cooling Degree Days 0 0  
Month to date cooling degree days 0 0  
Year to date cooling degree days 0 0  
Moisture  
Dew Point 33 °F    
Average Humidity 63    
Maximum Humidity 92    
Minimum Humidity 34    
Precipitation  
Precipitation 0.00 in 0.05 in 1.64 in (1980)
Sea Level Pressure  
Sea Level Pressure 30.12 in    
Wind  
Wind Speed 9 mph (South)    
Max Wind Speed 21 mph    
Max Gust Speed 26 mph    
Visibility 10 miles    
Events      
T = Trace of Precipitation, MM = Missing Value Source: NWS Daily Summary

Daily Weather History Graph

Daily Weather History Graph

Search for Another Location

Airport or City:

Trip Planner

Search our weather history database for the weather conditions in past years. The results will help you decide how hot, cold, wet, or windy it might be!

Date:

Astronomy

Mar. 28, 2013 Rise Set
Actual Time 6:36 AM MDT 7:07 PM MDT
Civil Twilight 6:08 AM MDT 7:34 PM MDT
Nautical Twilight 5:36 AM MDT 8:07 PM MDT
Astronomical Twilight 5:03 AM MDT 8:40 PM MDT
Moon 9:02 PM MDT (3/28) 7:05 AM MDT (3/28)
Length of Visible Light 13h 25m
Length of Day
12h 31m
Full, 98% of the Moon is Illuminated
Mar 28
Full
Apr 2
Last Quarter
Apr 10
New
Apr 18
First Quarter
Apr 25
Full

Hourly Weather History & Observations

Time (MDT) Temp. Windchill Dew Point Humidity Pressure Visibility Wind Dir Wind Speed Gust Speed Precip Events Conditions
12:53 AM 32.0 °F 28.7 °F 30.0 °F 92% 30.18 in 10.0 mi SSW 3.5 mph - N/A   Clear
1:53 AM 33.1 °F 27.7 °F 30.0 °F 89% 30.16 in 10.0 mi South 5.8 mph - N/A   Clear
2:53 AM 30.9 °F - 28.9 °F 92% 30.16 in 10.0 mi Calm Calm - N/A   Clear
3:53 AM 32.0 °F 26.4 °F 28.9 °F 88% 30.14 in 10.0 mi South 5.8 mph - N/A   Clear
4:53 AM 32.0 °F 27.5 °F 28.9 °F 88% 30.14 in 10.0 mi SSW 4.6 mph - N/A   Clear
5:53 AM 33.1 °F 27.7 °F 30.0 °F 89% 30.13 in 10.0 mi SSW 5.8 mph - N/A   Partly Cloudy
6:53 AM 33.1 °F 26.1 °F 28.9 °F 85% 30.14 in 9.0 mi SSW 8.1 mph - N/A   Scattered Clouds
7:53 AM 37.9 °F - 32.0 °F 79% 30.17 in 10.0 mi Calm Calm - N/A   Partly Cloudy
8:53 AM 44.1 °F 39.5 °F 33.1 °F 65% 30.17 in 10.0 mi SSW 8.1 mph - N/A   Scattered Clouds
9:53 AM 46.0 °F 39.9 °F 34.0 °F 63% 30.16 in 10.0 mi SSW 13.8 mph - N/A   Partly Cloudy
10:53 AM 52.0 °F - 34.0 °F 50% 30.15 in 10.0 mi South 17.3 mph 23.0 mph N/A   Partly Cloudy
11:53 AM 57.0 °F - 35.1 °F 44% 30.13 in 10.0 mi South 18.4 mph 24.2 mph N/A   Clear
12:53 PM 57.9 °F - 32.0 °F 37% 30.12 in 10.0 mi SSW 15.0 mph 23.0 mph N/A   Clear
1:53 PM 60.1 °F - 33.1 °F 36% 30.09 in 10.0 mi SW 13.8 mph 24.2 mph N/A   Clear
2:53 PM 62.1 °F - 34.0 °F 35% 30.07 in 10.0 mi SW 12.7 mph 25.3 mph N/A   Clear
3:53 PM 63.0 °F - 34.0 °F 34% 30.05 in 10.0 mi SSW 16.1 mph - N/A   Clear
4:53 PM 63.0 °F - 34.0 °F 34% 30.05 in 10.0 mi WSW 9.2 mph - N/A   Clear
5:53 PM 62.1 °F - 36.0 °F 38% 30.05 in 10.0 mi SSW 9.2 mph - N/A   Clear
6:53 PM 55.0 °F - 37.0 °F 51% 30.08 in 10.0 mi South 6.9 mph - N/A   Clear
7:53 PM 48.9 °F - 36.0 °F 61% 30.09 in 10.0 mi SSE 4.6 mph - N/A   Clear
8:53 PM 44.1 °F 41.5 °F 36.0 °F 73% 30.12 in 10.0 mi SE 4.6 mph - N/A   Clear
9:53 PM 42.1 °F 39.2 °F 35.1 °F 76% 30.13 in 10.0 mi ESE 4.6 mph - N/A   Clear
10:53 PM 39.0 °F 32.8 °F 34.0 °F 82% 30.12 in 10.0 mi SSE 9.2 mph - N/A   Clear
11:53 PM 37.9 °F 31.5 °F 33.1 °F 83% 30.12 in 10.0 mi SE 9.2 mph - N/A   Clear